Wind_Speed
10 10 9 9 9 10 9 9 9 9 8 8 8 8 8 8 9 9 9 9 9 8 8 9 10 11 12 13 14 14 15 15 15 15 15 15 11 4 7 12 10 9 8 8 11 12 12 12 12 13 11 9 8 7 10 9 8 6 5 7 6 8 8 9 10 4 0 7 9 6 8 7 10 10 3 5 5 6 6 7 10 10 14 16 20 22 22 21
10 10 9 10 9 10 9 9 9 9 9 8 8 8 8 8 8 8 9 8 8 9 9 10 10 11 12 13 13 13 16 16 16 18 14 13 14 10 7 8 9 10 9 10 13 13 11 10 11 12 9 7 7 8 9 8 8 7 6 6 7 9 9 11 9 6 5 4 7 6 7 7 8 12 6 6 9 8 7 8 10 11 15 16 19 20 19 19
10 10 9 10 9 9 9 9 9 9 8 8 8 8 8 8 8 8 8 8 8 9 9 10 10 11 12 13 13 12 14 15 16 16 11 11 11 9 7 7 8 9 11 13 13 13 12 11 11 11 9 8 8 9 10 8 8 8 7 7 9 10 11 11 5 7 8 5 4 6 5 6 8 10 7 9 11 9 8 9 12 12 14 15 16 17 17 17
10 9 9 9 9 9 9 9 9 9 8 8 8 8 8 8 8 8 8 8 8 9 9 10 10 11 12 13 12 11 12 13 9 6 12 11 7 6 5 5 7 8 11 12 12 13 13 13 11 10 10 8 8 10 10 7 7 7 8 9 9 7 9 8 2 2 3 6 3 4 3 6 9 8 7 9 11 8 9 12 15 13 16 16 15 15 15 14
10 10 10 10 9 9 9 9 9 9 8 8 9 9 8 8 8 8 9 9 9 9 9 9 10 11 13 13 11 10 9 6 2 10 12 10 8 7 6 6 8 9 9 12 13 13 13 14 11 10 9 8 9 8 9 9 8 6 9 14 13 8 7 3 2 2 1 3 1 4 4 3 7 6 6 10 9 3 2 7 14 14 17 16 15 13 13 13
10 10 10 10 9 9 9 9 9 9 9 9 9 9 9 9 9 9 9 9 9 9 8 9 10 12 13 12 11 8 7 3 6 11 11 9 8 6 6 8 9 9 10 12 14 13 10 11 10 9 8 8 11 9 9 10 9 7 8 13 13 9 6 5 5 4 3 5 5 2 4 4 6 6 5 9 4 9 10 7 8 12 18 16 14 11 11 12
11 10 9 9 9 9 9 9 9 9 9 9 9 9 9 9 9 9 8 8 8 8 8 9 10 12 12 12 9 7 9 7 5 12 11 9 7 5 5 7 8 10 11 12 14 11 9 10 9 9 8 8 11 10 10 10 11 9 8 9 10 8 5 3 5 3 4 10 7 1 4 4 7 6 6 9 5 13 10 9 9 13 18 15 13 11 10 11
11 10 10 10 9 9 9 9 9 9 9 9 9 8 8 8 8 9 8 8 7 8 8 9 11 11 11 10 7 7 10 7 10 14 11 8 6 5 4 6 9 11 12 13 13 10 9 10 10 8 9 10 9 10 11 10 11 10 9 9 5 6 5 2 2 2 5 7 3 2 2 3 5 4 5 10 7 12 8 7 9 12 15 13 11 11 10 10
11 11 10 9 9 9 9 9 9 9 9 9 9 8 8 8 8 8 7 8 7 8 8 9 11 10 9 7 7 7 3 8 14 13 11 9 7 6 6 8 11 12 13 13 11 11 8 8 11 10 10 10 8 9 8 8 8 7 11 12 3 3 6 2 3 4 4 5 3 1 5 8 6 1 1 9 6 10 8 5 8 12 13 12 11 10 9 9
11 10 10 9 9 9 8 8 9 9 9 8 8 9 9 8 7 7 7 7 7 8 8 10 10 8 8 7 9 5 5 12 12 12 10 9 8 8 10 10 12 13 12 11 9 11 10 8 8 7 10 11 9 9 5 7 5 4 11 11 3 4 7 4 5 7 5 6 6 5 9 11 8 4 3 10 8 8 8 7 8 11 11 11 11 10 9 9
10 10 10 9 8 8 8 8 8 8 8 8 8 8 8 7 7 7 7 7 8 8 8 9 8 8 9 9 9 4 6 9 9 11 10 8 9 10 10 8 9 11 11 9 8 10 10 9 8 6 6 5 7 9 7 7 5 5 8 8 5 6 5 5 8 8 6 6 7 6 10 11 10 8 8 13 11 9 8 8 9 10 10 11 12 10 8 9
11 10 9 8 7 7 7 8 8 8 8 8 8 8 8 7 7 7 8 8 8 8 8 8 7 7 9 9 9 4 4 6 7 9 9 8 9 9 7 5 7 9 10 9 8 9 9 8 9 10 5 4 7 7 5 6 5 6 7 7 8 9 7 9 10 8 6 7 8 7 8 10 12 11 11 13 8 10 8 8 9 10 9 11 11 10 9 10
10 8 7 7 7 7 8 8 9 9 9 9 9 8 8 8 7 7 8 8 8 8 8 8 6 6 8 7 6 5 2 5 7 7 8 9 10 9 6 6 7 9 10 10 9 5 5 7 10 12 9 7 7 3 1 5 4 8 9 7 8 8 9 12 11 10 10 6 7 5 5 8 12 14 15 11 10 10 9 9 9 9 9 10 10 9 9 11
10 8 7 7 7 7 8 9 10 10 10 10 10 9 9 8 8 7 8 8 7 8 7 7 7 5 7 6 3 6 5 4 6 7 8 10 10 9 8 8 8 8 8 9 9 6 5 9 10 10 9 9 6 4 3 6 5 8 9 7 7 6 8 13 14 13 11 7 8 6 5 7 11 16 19 14 13 11 9 9 9 9 9 9 10 9 10 11
9 8 7 7 8 8 9 10 10 10 10 10 10 10 9 8 8 7 8 8 7 8 7 8 7 5 7 8 4 6 7 6 9 10 10 10 10 9 9 9 9 8 7 8 9 7 6 9 9 8 8 8 7 5 6 7 5 7 7 7 7 6 10 11 16 14 11 8 9 9 5 6 13 16 13 15 13 11 10 10 10 10 10 9 10 9 9 11
9 8 8 8 8 9 10 10 10 9 8 7 6 7 7 7 8 7 8 8 7 7 6 7 10 11 6 3 6 6 8 8 8 10 9 9 11 10 8 7 7 7 7 8 8 7 7 8 7 7 8 6 6 7 6 5 6 6 6 7 7 8 9 6 13 14 13 10 11 11 6 7 10 4 12 14 12 11 9 10 11 10 9 9 9 8 8 9
9 8 8 8 9 10 10 10 9 8 6 5 5 4 5 6 8 7 7 7 7 7 8 9 9 10 7 3 4 7 9 6 4 7 8 9 10 9 6 6 7 7 7 7 6 7 8 7 5 5 6 5 5 6 6 6 7 6 7 7 8 10 9 5 12 15 16 11 10 12 8 10 12 1 14 11 9 10 9 10 11 9 9 8 8 9 9 9
8 8 8 7 8 9 9 9 9 7 5 4 5 4 3 5 7 7 6 5 4 6 11 13 11 5 6 8 6 5 6 6 4 5 7 9 9 8 6 8 7 7 7 5 6 7 6 6 5 5 5 5 5 5 7 7 5 5 5 5 7 10 11 9 5 10 14 11 9 9 8 11 14 7 11 12 9 9 9 8 9 10 10 9 8 9 10 9
8 7 7 7 7 8 7 8 9 7 5 3 5 6 4 3 5 6 8 7 4 5 5 5 9 4 0 5 3 4 5 4 4 5 7 9 8 8 9 8 6 7 7 5 7 8 5 4 5 5 6 7 7 10 9 5 6 8 7 5 7 8 10 10 3 8 10 9 8 9 9 10 12 12 9 12 12 9 9 8 7 9 10 9 9 9 9 9
8 7 7 6 6 7 6 7 8 9 7 3 5 6 5 3 3 3 7 9 9 10 8 4 13 8 2 5 5 5 4 4 6 7 8 9 8 9 9 8 7 7 7 6 7 6 5 6 5 7 7 2 3 9 7 5 8 10 9 8 10 7 7 6 4 9 5 4 7 8 9 11 11 12 12 9 13 11 11 10 8 8 9 10 11 10 9 8
9 7 7 6 6 6 5 6 8 10 10 7 5 7 4 5 3 2 1 8 14 15 11 5 9 9 4 2 4 3 4 7 8 7 8 9 9 8 7 7 8 6 7 10 5 2 2 6 7 10 8 4 8 5 4 7 8 9 9 8 9 6 7 8 3 8 3 2 5 7 9 13 13 12 13 11 12 13 12 11 10 11 10 9 11 11 10 8
9 7 7 6 6 6 6 7 7 11 14 10 6 9 5 9 7 6 5 7 11 11 8 6 7 7 3 1 1 3 6 7 9 8 8 8 9 8 7 8 9 7 8 10 5 2 4 8 12 10 2 2 3 5 7 7 8 8 8 8 8 7 9 9 7 9 5 3 4 8 9 12 14 15 14 14 12 11 14 13 10 11 11 10 10 9 8 7
9 7 7 6 7 7 7 7 8 12 14 10 10 8 6 8 8 8 6 8 7 7 8 7 7 8 8 6 4 6 9 9 9 11 11 7 9 9 7 8 9 9 9 10 7 6 6 5 8 4 3 2 3 2 4 5 4 6 7 7 8 8 10 7 3 4 2 2 4 6 8 9 11 14 14 14 13 8 11 15 11 10 11 11 10 9 8 9
9 8 7 6 8 8 8 9 10 13 14 15 12 4 8 7 9 11 6 7 6 5 5 4 6 8 5 3 4 9 10 8 5 7 13 8 8 8 8 8 8 8 9 10 9 9 9 2 3 4 2 5 6 3 4 4 5 7 8 9 9 10 10 7 1 2 3 3 4 6 8 7 10 13 13 10 11 11 9 13 14 13 13 11 10 10 9 10
9 8 7 6 7 8 9 10 12 14 14 13 5 6 8 8 8 9 5 4 5 4 2 3 6 3 3 3 5 7 8 6 3 4 10 9 9 6 6 7 7 8 11 12 10 10 9 2 5 4 3 4 6 6 6 4 5 8 9 11 12 12 12 9 6 4 3 5 7 8 6 6 9 14 14 10 10 13 13 13 14 14 15 14 12 11 9 8
10 8 7 6 7 8 8 6 7 10 10 4 6 7 8 8 8 8 4 3 3 3 3 5 6 2 2 5 8 7 8 8 5 6 6 7 8 5 5 5 5 9 11 8 7 7 4 7 4 6 5 5 6 7 7 7 7 7 6 8 12 13 10 9 11 7 4 7 4 9 6 6 8 10 10 11 11 13 14 14 15 13 14 14 13 11 9 8
10 8 6 5 6 7 6 6 11 11 5 4 8 8 7 7 8 6 4 2 1 3 4 6 4 2 3 4 7 8 3 1 5 5 4 5 6 4 6 7 5 7 8 4 6 4 3 7 6 5 6 6 7 7 8 10 9 4 1 8 11 10 9 9 10 8 6 8 4 10 8 7 6 9 8 9 11 13 13 13 14 12 12 13 12 11 11 9
10 7 4 4 5 6 6 9 14 11 7 9 9 8 7 7 7 4 4 2 2 2 3 4 4 2 4 4 8 9 2 2 4 5 6 6 6 6 7 10 10 9 7 5 6 1 2 5 5 5 7 6 7 8 9 11 10 6 3 4 10 9 9 8 8 8 7 8 6 9 10 6 6 8 11 12 12 11 11 12 12 12 12 12 10 11 11 10
8 5 2 2 3 5 5 8 10 9 10 10 9 8 8 7 5 3 4 3 1 2 0 2 3 6 8 6 8 8 4 5 5 2 5 6 7 8 6 8 10 12 9 6 6 3 3 5 4 7 8 6 9 11 12 12 9 5 2 3 7 9 9 7 7 8 7 8 8 10 11 7 6 7 8 11 10 8 10 11 11 10 10 11 10 10 10 10
6 3 1 2 3 4 5 6 7 7 9 9 9 10 9 7 4 3 3 2 1 2 2 2 3 5 9 8 8 7 7 7 5 4 4 4 8 9 7 7 7 10 9 6 7 9 8 4 3 7 8 7 11 11 8 7 6 2 3 4 8 8 8 7 7 6 7 8 10 13 14 10 7 6 6 7 5 8 8 8 9 10 11 10 9 10 10 10
4 2 1 3 5 6 6 4 4 8 9 10 12 10 7 4 3 4 3 1 1 1 2 4 2 3 8 8 6 6 7 9 8 7 6 4 6 8 7 7 5 5 7 6 8 10 11 7 4 7 9 9 12 10 6 3 5 5 5 6 7 7 7 6 6 6 7 7 9 12 15 12 8 6 7 7 1 7 7 6 7 10 12 11 9 10 10 9
2 1 2 3 4 5 7 7 9 10 9 11 11 7 5 4 4 4 1 2 3 1 1 3 3 3 6 7 5 6 8 7 6 6 7 7 6 6 7 6 4 4 6 5 6 8 10 10 9 9 10 10 10 8 7 6 6 6 6 6 6 6 6 6 7 7 7 8 10 12 12 10 8 7 9 11 7 6 6 3 5 6 9 11 9 10 8 8
3 2 2 2 3 4 7 7 8 10 11 11 9 5 4 5 4 4 3 2 0 2 2 4 5 6 7 7 7 7 7 6 5 7 8 8 7 7 9 8 7 8 6 3 4 5 6 8 10 10 9 10 10 8 6 6 7 7 7 6 6 6 6 7 7 6 8 7 7 9 8 6 7 6 8 12 12 8 6 5 6 8 5 9 9 10 9 9
2 1 1 3 3 5 6 6 6 10 12 10 7 5 5 6 5 4 5 4 4 2 5 4 4 8 8 9 10 7 6 7 8 8 7 7 7 6 7 9 11 10 7 5 4 6 7 6 7 8 5 8 11 10 8 8 7 8 8 8 7 7 6 7 6 6 7 5 5 6 4 3 5 3 5 9 10 10 9 8 7 7 5 6 8 9 9 10
1 1 2 1 1 3 5 6 7 10 11 8 6 5 6 5 5 4 4 6 5 5 8 8 7 10 9 9 12 7 3 4 6 7 7 7 7 7 7 8 10 9 7 6 4 5 9 8 4 7 8 8 10 9 10 11 9 6 7 8 7 7 7 7 7 7 8 7 7 6 4 3 4 4 8 10 8 10 11 6 8 7 6 4 6 7 7 8
4 3 4 5 2 2 5 6 8 10 9 7 5 5 5 4 5 5 5 6 8 8 10 11 9 10 9 7 8 5 5 2 7 6 6 8 9 9 9 7 6 7 7 5 5 5 7 7 5 8 10 9 8 9 11 11 8 5 7 8 7 8 8 6 6 7 7 8 7 5 5 6 6 7 10 12 12 12 12 10 8 8 8 7 5 4 6 7
8 7 5 3 2 3 4 5 8 10 8 5 5 6 6 5 5 6 7 8 10 10 8 8 7 7 8 5 5 4 4 4 7 6 5 8 8 8 10 6 2 4 6 5 5 5 6 7 8 11 12 7 7 11 13 13 10 7 7 8 7 8 7 5 5 6 6 7 7 6 7 7 7 6 8 11 13 12 11 12 10 6 7 9 7 6 7 7
10 9 5 1 5 5 5 6 8 9 6 5 7 7 7 5 4 6 8 8 9 10 8 7 6 7 8 6 7 8 4 3 4 6 6 6 4 5 7 5 0 2 6 6 5 4 5 8 8 10 13 10 9 12 13 12 13 12 10 9 7 7 7 5 5 5 6 7 6 7 10 9 8 7 8 10 10 9 10 9 9 8 7 8 7 8 9 8
10 9 2 2 6 6 5 6 7 7 5 5 7 4 4 6 4 5 6 8 9 8 7 7 7 6 7 7 8 9 9 7 6 6 5 5 3 1 3 3 1 3 4 5 6 4 4 7 7 7 10 9 7 9 9 8 9 12 12 9 7 7 7 7 6 5 7 8 7 9 9 7 7 8 9 12 10 8 9 6 6 8 7 6 5 6 8 7
8 6 1 4 7 6 6 6 6 6 5 5 6 4 5 5 5 5 4 4 7 7 6 8 8 7 7 9 9 8 8 9 9 7 6 7 5 4 1 2 2 4 4 5 6 5 5 6 6 7 9 9 7 7 8 8 8 8 8 8 7 6 5 6 7 7 8 8 7 7 8 6 6 6 7 10 9 7 8 6 5 6 6 7 5 4 6 6
8 5 1 4 7 7 6 6 5 4 5 5 5 5 4 5 7 9 3 1 2 5 7 7 8 8 7 9 9 7 8 8 8 8 6 7 7 4 2 6 4 5 5 6 5 3 3 5 6 7 7 8 9 9 12 13 10 8 7 7 8 6 3 3 5 7 7 7 6 6 7 8 6 4 8 9 8 7 9 9 7 5 4 5 7 7 5 5
7 4 2 5 9 8 6 6 4 4 4 4 4 5 5 3 6 10 6 2 4 5 6 6 7 7 7 8 8 8 8 7 8 8 6 8 8 3 3 5 4 4 5 7 5 3 3 3 6 8 8 10 14 15 16 17 16 13 11 9 9 8 6 5 6 6 6 8 8 6 7 8 7 6 7 6 7 8 9 9 8 7 6 7 10 9 7 3
4 4 3 3 7 7 6 5 5 4 4 3 4 6 6 4 6 7 6 6 5 5 5 5 7 7 7 8 8 9 9 6 8 8 8 11 7 4 4 4 5 3 4 6 4 4 4 4 6 8 9 11 15 17 16 17 16 13 10 10 10 9 9 8 7 6 6 7 8 7 7 8 6 5 5 5 6 7 7 7 8 6 5 6 8 7 7 7
6 5 2 4 4 7 6 5 5 5 6 6 6 7 8 6 6 7 7 7 5 5 6 5 7 7 7 8 8 9 9 6 7 9 9 10 3 5 2 2 3 3 2 4 5 5 3 4 5 6 7 8 9 9 9 9 7 6 6 8 9 10 9 8 7 6 6 8 10 8 7 7 6 7 10 10 10 10 8 8 9 8 5 5 5 4 4 6
6 4 1 3 7 8 4 3 5 5 6 9 9 9 9 7 5 4 5 8 7 7 7 5 7 8 7 8 8 9 10 8 7 7 9 9 5 3 3 2 0 3 4 9 7 5 4 4 5 6 7 7 7 5 4 5 5 6 7 10 11 12 11 8 6 6 7 9 10 9 7 8 11 13 14 13 12 12 11 10 11 11 10 10 7 3 1 2
5 2 4 6 7 7 3 1 4 4 6 7 6 8 9 9 6 2 2 5 7 6 6 6 7 9 9 9 9 9 9 10 9 8 9 9 8 7 3 4 3 2 9 8 4 4 5 6 7 9 10 10 11 11 12 12 10 10 13 15 14 14 14 11 7 7 8 9 9 9 9 11 14 16 16 14 13 12 12 12 12 12 12 12 10 7 5 4
4 3 5 5 5 4 3 3 4 4 7 7 4 7 8 8 9 3 4 2 5 4 5 6 7 8 8 7 8 8 10 12 11 11 12 11 9 11 9 8 8 3 9 4 1 1 4 7 9 13 15 16 17 17 17 15 14 15 16 18 18 16 16 12 9 10 11 10 10 11 11 12 14 17 18 16 14 13 12 13 13 12 12 11 11 13 13 11
5 4 3 3 3 5 6 7 7 8 11 10 6 7 8 9 10 7 3 4 6 4 4 5 7 9 9 9 7 7 8 10 10 10 12 11 10 11 11 12 13 7 3 5 4 3 5 8 10 13 17 18 18 18 17 15 15 16 17 19 19 18 16 13 12 14 13 10 12 14 15 14 14 18 21 19 15 14 14 14 14 14 14 14 14 15 16 15
5 4 3 4 4 8 9 8 9 10 11 9 6 7 8 9 9 9 8 8 7 6 5 7 9 9 11 11 9 7 8 8 8 8 9 10 10 10 9 9 11 10 7 8 8 6 5 7 10 13 16 18 18 16 16 16 15 17 19 21 21 19 16 15 15 17 16 15 15 17 18 16 15 18 21 19 16 15 14 14 14 15 16 15 15 16 15 16
5 3 4 5 6 8 8 7 7 8 8 6 6 6 8 9 8 7 9 8 7 7 7 9 12 12 12 12 10 9 9 5 5 7 10 11 10 8 8 8 8 9 10 10 9 6 6 7 10 11 12 15 16 15 16 16 15 17 21 23 21 18 16 16 15 13 13 15 16 15 15 14 14 15 17 16 16 15 14 15 15 15 15 15 15 16 15 15
9 5 4 5 6 7 7 7 6 6 7 6 5 6 6 7 8 8 8 8 9 10 9 9 11 10 12 14 11 10 9 6 7 9 11 11 11 9 7 8 10 10 10 9 8 7 7 7 9 9 10 12 12 13 16 15 15 19 22 19 15 14 14 13 12 11 11 12 13 12 11 11 12 13 15 16 17 17 17 17 14 12 12 15 16 16 16 15
12 8 6 6 6 6 7 7 7 7 5 4 5 7 7 9 10 10 7 6 8 9 7 7 8 6 8 12 12 11 9 7 8 10 10 11 14 14 12 13 14 13 10 9 8 8 8 8 8 8 10 11 11 12 14 12 12 14 12 8 9 12 14 14 13 14 14 12 10 10 10 10 12 14 15 16 17 17 16 13 12 12 13 14 15 17 18 18
Wind_Direction
323 319 316 313 311 310 309 307 307 305 300 299 297 295 294 293 291 288 288 283 280 276 276 286 289 293 297 301 303 307 314 308 296 272 244 237 236 216 182 193 214 237 251 237 224 240 237 227 229 232 233 230 234 237 240 235 232 234 227 244 250 248 247 251 260 259 179 98 110 153 173 182 165 173 135 112 146 123 132 109 93 93 92 95 103 113 119 123
323 321 319 315 314 310 310 309 308 305 300 299 297 296 295 292 290 287 285 281 281 283 285 287 287 293 297 301 305 317 324 309 286 271 254 226 223 229 231 223 234 240 234 223 220 226 229 229 221 221 226 227 223 220 233 221 215 237 233 235 243 251 248 253 281 358 4 99 139 170 180 209 175 166 155 183 189 146 157 144 131 123 113 115 114 119 123 127
324 322 320 316 315 310 308 307 306 302 297 296 297 296 293 289 286 284 282 278 278 283 284 283 288 293 297 302 309 327 324 302 279 261 229 193 202 220 236 232 232 231 222 221 227 232 236 238 221 216 220 226 227 212 220 202 195 226 236 242 231 249 275 268 297 29 352 3 138 164 186 207 161 157 160 201 203 164 186 170 154 151 138 135 125 125 126 130
325 319 317 315 312 307 305 304 304 304 300 297 294 292 291 290 287 285 283 279 278 279 279 282 288 292 300 304 312 331 313 288 276 216 170 168 174 179 187 192 204 209 219 233 251 256 250 246 227 217 222 226 229 216 217 200 191 213 220 246 239 254 298 282 279 68 298 337 28 132 197 194 156 164 164 208 213 176 211 193 173 171 154 142 128 129 130 133
321 315 313 314 313 310 307 305 305 303 300 297 291 289 289 288 287 285 280 277 276 275 277 283 289 295 300 303 313 319 298 284 103 120 140 158 157 163 181 194 207 209 228 244 253 258 251 249 235 218 227 234 230 217 221 209 203 224 221 241 256 278 317 349 359 348 278 303 309 143 205 184 147 173 169 214 219 131 283 187 176 172 149 136 128 133 134 137
323 321 318 316 314 310 307 303 302 297 297 297 293 290 286 285 284 280 275 273 272 273 278 284 292 298 298 304 308 292 273 291 109 130 144 153 157 178 204 207 214 214 231 249 250 248 238 240 238 219 222 238 239 223 220 216 207 228 229 233 252 271 307 7 17 11 4 263 251 165 225 213 167 183 185 222 196 71 38 59 119 132 131 130 129 136 140 142
328 326 319 315 311 307 306 302 301 297 297 295 290 287 282 281 281 279 275 273 273 273 277 284 291 296 305 311 296 250 251 268 144 141 148 154 173 193 209 212 218 214 223 245 244 232 218 225 227 218 218 232 245 233 218 223 218 227 246 248 251 243 239 20 35 6 277 249 253 243 250 225 170 184 209 217 132 88 71 67 86 110 124 131 133 142 146 146
331 327 320 317 312 309 307 304 301 295 292 291 288 287 280 277 278 279 276 272 271 272 274 283 292 300 322 328 290 238 245 238 140 144 155 158 176 180 193 204 209 216 225 239 239 223 212 222 223 218 224 226 238 236 217 219 226 227 250 265 258 229 220 100 83 267 256 247 282 21 253 231 180 192 223 216 155 106 100 99 109 119 129 136 140 147 148 149
333 331 326 320 314 310 306 304 301 293 291 290 289 288 281 275 277 277 273 270 268 269 274 284 293 308 328 318 279 274 228 144 134 149 159 156 173 183 196 202 199 211 227 235 241 236 220 218 223 221 237 250 266 257 218 205 223 215 235 253 250 216 236 201 193 226 230 238 256 217 227 231 217 197 243 236 204 117 125 151 136 134 142 146 147 150 151 152
335 333 328 322 317 312 308 305 302 298 294 288 287 286 281 275 273 274 268 264 261 263 274 285 297 315 310 276 264 285 109 125 140 153 156 164 180 189 205 216 205 211 233 236 235 242 238 240 244 238 249 267 283 273 224 196 232 237 237 250 259 245 235 195 222 228 209 229 230 216 232 235 224 202 208 242 230 140 145 181 164 151 151 150 153 153 154 152
337 334 329 325 321 317 314 308 303 302 299 292 287 283 280 274 267 266 260 255 255 261 274 285 300 314 298 275 267 271 129 143 154 157 166 175 187 200 213 223 215 223 245 245 230 239 253 273 289 279 262 283 280 263 237 219 252 270 256 259 241 242 234 195 231 231 202 224 217 220 245 243 231 206 211 238 222 162 162 191 180 167 157 153 158 157 158 151
341 337 333 330 326 321 317 312 307 303 299 292 287 281 278 274 265 261 256 252 252 257 271 284 303 314 297 275 257 249 142 166 169 166 179 187 202 217 229 227 227 244 261 265 248 242 256 278 290 275 273 317 281 263 242 230 253 262 259 267 235 223 227 220 227 217 204 220 196 213 252 245 239 216 215 236 198 151 177 199 186 176 166 159 158 160 166 155
346 341 339 336 331 326 323 318 312 307 301 293 287 279 273 269 262 258 255 252 252 260 273 284 299 296 284 277 233 202 184 191 182 184 192 199 215 222 231 234 236 254 264 274 286 288 262 265 275 273 276 276 273 346 340 228 233 251 244 248 245 227 221 219 215 209 208 199 160 188 250 239 237 222 215 213 158 156 196 201 190 181 170 164 161 167 170 157
348 345 342 337 330 325 321 316 310 306 300 292 284 276 271 264 258 253 252 253 255 262 268 278 291 280 261 267 203 174 196 197 187 207 207 206 222 220 216 230 241 251 252 263 289 302 268 263 265 269 276 269 287 359 279 235 219 246 243 232 245 246 237 215 199 204 199 163 154 192 255 253 253 237 215 190 161 175 201 203 198 185 174 169 162 173 173 162
349 346 338 329 323 322 320 316 313 310 302 295 284 275 266 256 253 248 249 253 251 258 273 282 265 242 260 252 196 174 195 205 209 212 210 207 219 220 210 219 229 234 246 254 267 271 255 258 254 253 260 246 263 285 250 237 218 232 240 232 230 238 265 228 184 188 193 170 180 207 253 251 264 260 200 160 162 184 201 204 201 188 179 173 165 179 178 164
349 343 333 329 327 327 325 324 324 321 314 304 292 280 261 250 248 244 250 251 251 257 269 276 226 211 269 290 145 174 199 208 212 200 204 213 216 222 208 209 223 219 234 244 247 256 241 245 249 259 273 242 232 257 255 241 219 216 230 246 240 223 259 232 165 179 198 190 190 203 242 254 268 290 127 141 166 184 206 199 194 193 177 172 172 180 183 166
348 339 332 332 330 331 331 332 336 335 332 327 325 294 252 244 238 236 248 250 264 264 248 266 247 216 256 299 156 195 195 180 178 183 202 217 227 244 218 201 225 219 222 230 232 240 224 228 245 250 272 267 238 247 246 238 227 214 212 236 253 246 259 220 169 185 200 206 205 198 218 259 278 78 124 148 176 184 213 203 192 192 175 180 182 182 191 178
344 334 329 329 331 335 334 338 342 341 338 345 2 349 273 244 239 244 251 249 264 256 245 257 266 255 244 238 219 192 166 150 169 200 205 207 228 256 235 215 226 214 216 226 222 226 211 205 231 232 232 235 240 244 236 238 251 258 239 235 248 251 264 263 209 185 191 204 220 215 216 241 266 254 158 161 179 197 215 211 199 189 182 188 190 194 199 189
338 328 323 321 331 333 330 338 339 338 339 356 14 356 317 252 246 249 238 228 201 226 263 222 215 260 1 193 182 114 120 140 181 208 204 199 212 235 235 237 246 224 217 210 197 206 206 206 228 239 230 224 223 223 232 276 332 328 320 300 277 249 241 255 221 156 178 197 214 233 247 244 253 261 228 174 175 203 214 215 214 192 186 190 198 207 206 198
336 327 314 311 325 324 322 329 326 329 329 335 345 314 288 263 246 223 212 219 221 244 288 176 191 241 279 158 137 114 141 178 202 213 204 197 201 218 227 231 239 229 231 230 196 188 213 226 228 230 235 312 301 238 238 339 351 333 322 304 297 283 248 257 129 129 164 214 217 227 249 258 256 260 261 209 173 189 212 217 219 208 196 194 205 208 207 213
336 324 307 303 312 313 308 307 315 319 313 320 318 277 299 7 339 336 260 235 231 238 264 229 208 261 302 119 127 158 200 197 207 209 185 186 206 216 201 206 225 213 229 242 217 132 225 244 249 242 242 29 20 332 341 3 346 327 315 298 293 288 282 288 123 121 124 204 243 259 260 267 270 264 265 247 196 185 200 215 216 217 214 208 211 209 207 213
335 321 304 292 295 304 298 294 303 304 305 311 278 254 315 14 347 327 331 275 243 223 242 252 250 267 273 281 260 243 246 213 200 188 163 183 212 215 181 189 224 215 218 232 220 208 220 236 248 248 269 62 46 0 349 346 338 324 309 290 285 283 283 271 185 154 153 165 240 266 269 271 271 263 258 254 236 198 187 204 219 218 221 222 218 217 218 220
330 319 301 281 282 292 286 285 286 289 293 281 253 261 331 1 340 322 303 283 264 210 219 223 227 228 209 227 229 214 239 235 207 173 161 193 218 225 217 203 226 229 222 216 205 237 242 241 245 216 82 246 243 323 327 330 319 290 282 276 272 262 267 270 179 131 64 344 292 281 278 273 269 265 255 246 249 237 184 185 205 221 229 233 227 226 219 225
327 317 301 282 278 276 278 283 276 272 269 258 255 318 355 344 342 336 313 279 267 213 219 219 228 230 184 154 194 207 235 265 276 161 156 196 222 220 235 239 241 238 240 229 209 238 258 259 139 142 134 254 261 276 283 294 277 260 253 256 270 267 275 299 0 53 349 294 265 270 278 269 257 255 251 239 234 246 226 194 197 208 222 234 239 243 224 221
325 316 302 284 273 271 283 284 262 248 247 254 272 24 350 339 354 343 321 277 260 203 187 223 238 239 104 120 202 225 249 257 277 135 151 201 234 228 235 246 251 243 242 238 227 241 254 161 134 190 216 229 250 251 238 239 261 264 247 239 251 262 281 302 299 293 293 270 232 224 256 270 255 247 237 230 222 228 235 227 215 206 212 220 228 238 230 225
323 314 303 286 275 278 285 289 275 261 253 273 30 14 339 349 355 334 304 273 249 185 157 189 205 178 143 198 203 229 258 234 181 133 158 216 242 266 270 236 225 249 256 258 255 245 187 131 162 249 248 224 242 250 235 231 242 258 272 264 248 241 254 281 292 290 274 288 238 184 226 275 276 270 232 211 219 221 219 225 229 221 217 218 218 221 218 220
323 314 299 282 279 283 287 308 316 310 303 23 19 348 345 358 343 330 289 275 209 198 176 163 169 175 195 190 202 224 260 126 143 151 186 218 226 235 259 251 227 237 255 274 273 268 162 165 182 239 255 240 246 251 235 237 251 248 4 305 280 253 249 262 279 279 264 287 253 179 217 265 277 291 271 226 219 220 212 211 221 229 233 228 216 212 212 212
324 316 290 283 289 285 288 303 311 324 0 12 355 338 355 350 328 315 269 288 91 207 202 126 113 177 208 190 220 245 327 98 193 190 169 180 214 210 224 254 260 251 248 244 237 265 333 236 199 222 247 246 251 253 236 226 245 251 194 274 284 273 268 262 261 265 256 268 259 212 225 246 251 265 274 262 238 211 201 207 216 221 236 239 222 217 217 202
326 319 277 285 286 269 278 291 297 328 358 352 342 340 339 320 302 275 267 283 141 205 163 98 142 198 214 200 209 238 252 219 211 160 152 170 215 235 248 262 269 275 282 278 246 235 262 236 212 237 240 242 245 243 241 225 222 270 319 298 282 274 276 269 253 260 256 250 254 248 243 247 258 248 246 256 243 199 190 209 217 209 220 234 219 216 216 195
331 324 282 271 276 282 278 257 267 321 350 343 336 333 313 291 274 255 268 282 226 160 136 191 194 196 209 207 201 210 225 224 193 172 202 205 207 223 263 276 273 283 285 275 255 258 263 227 188 249 242 241 246 245 258 238 202 260 319 275 261 254 252 251 247 255 261 256 250 254 257 255 265 264 256 269 235 190 206 215 202 195 205 217 209 204 207 199
340 322 304 269 286 310 297 269 317 343 348 338 329 317 291 266 251 269 262 218 220 164 198 237 224 201 222 230 221 208 229 235 206 187 203 222 206 202 236 248 236 267 270 251 239 244 250 232 196 233 242 249 255 258 273 246 211 243 255 254 261 247 232 233 238 240 247 260 257 257 257 248 251 253 260 309 5 182 226 241 200 195 196 200 204 200 201 207
351 329 331 292 301 322 311 323 347 341 332 328 320 297 278 273 258 271 247 187 215 136 18 286 264 264 269 275 264 229 240 250 228 215 214 215 211 198 215 226 207 228 243 237 239 236 236 233 221 213 216 233 250 254 246 223 219 240 241 244 256 252 242 235 232 234 239 249 256 265 267 253 254 254 255 294 305 206 206 249 261 241 194 185 198 196 194 209
11 0 358 353 331 310 307 319 328 326 327 321 305 275 277 290 282 289 296 274 73 74 343 287 261 273 281 280 269 239 236 248 242 243 239 238 242 220 216 226 231 239 246 257 276 263 240 228 228 224 203 203 225 242 242 220 205 214 230 240 245 250 257 253 245 245 247 249 256 275 292 273 263 267 254 271 283 265 218 205 268 285 211 178 192 197 192 205
11 337 347 28 359 296 298 313 310 320 325 310 286 273 274 278 282 291 304 330 29 17 290 283 268 269 267 263 268 266 247 236 228 233 241 250 262 256 241 244 247 252 268 280 279 268 264 246 224 237 222 187 206 232 258 267 245 222 227 235 246 259 266 267 269 268 273 293 293 280 294 263 253 273 260 262 280 285 260 206 211 267 248 182 194 209 202 204
326 313 285 262 291 284 294 309 307 313 318 304 285 277 271 274 284 299 339 344 346 336 319 322 303 275 265 255 258 263 241 236 245 244 245 249 249 249 246 247 254 262 272 272 267 261 265 265 236 238 239 212 210 227 246 264 269 258 245 237 239 254 267 277 282 286 293 302 292 273 267 257 256 262 264 269 274 276 278 246 200 223 244 211 206 223 224 219
282 290 272 257 249 311 301 301 307 309 307 299 290 281 283 310 318 331 13 347 323 331 322 310 295 272 267 260 250 224 159 226 292 279 250 255 254 248 244 235 232 240 248 258 269 275 267 270 282 269 250 223 221 242 244 247 260 268 260 256 250 244 250 267 278 283 287 281 272 265 263 267 270 257 248 254 258 257 268 268 237 214 213 211 207 223 243 252
283 276 259 280 357 354 309 306 315 308 296 287 287 290 295 317 347 354 10 354 322 316 309 296 300 294 293 303 287 261 169 202 276 275 258 259 258 262 263 260 213 225 253 274 273 283 287 279 283 282 272 243 226 247 254 258 265 265 259 268 278 269 260 259 265 268 265 265 267 260 261 266 266 264 254 247 248 252 259 260 253 231 209 208 200 197 220 245
291 285 252 327 357 346 320 313 311 298 283 280 274 270 281 301 15 17 2 354 320 307 305 290 298 311 310 314 303 295 281 223 247 266 270 265 271 307 297 292 343 252 286 302 286 282 291 280 272 268 270 266 245 246 251 252 255 263 272 280 280 274 269 257 252 261 258 259 266 262 263 265 257 262 271 261 255 267 278 271 260 258 245 228 205 192 205 218
285 285 239 42 353 340 326 311 302 286 271 281 277 268 293 304 8 29 2 348 323 310 306 294 302 315 309 304 300 302 303 294 289 287 280 282 284 300 309 305 234 240 286 298 289 291 285 279 277 265 272 282 273 260 261 253 248 256 263 268 268 268 274 269 255 256 257 257 265 265 261 260 259 263 271 276 284 290 286 283 272 272 270 252 217 189 202 209
271 273 133 34 348 336 326 298 280 277 263 271 284 295 317 325 357 17 21 359 329 310 302 305 314 314 306 303 299 300 301 294 291 285 283 297 281 214 164 16 277 251 251 251 271 293 281 270 275 273 278 280 265 253 260 258 253 255 257 262 262 262 282 289 272 263 263 263 266 270 267 259 259 279 293 299 316 318 303 306 295 282 279 273 268 231 209 199
274 284 82 30 348 335 318 279 256 272 276 285 302 312 341 0 334 321 321 122 288 287 291 300 302 300 302 301 297 295 292 288 287 282 273 280 276 257 46 40 3 301 284 265 270 313 301 282 286 284 277 267 262 267 274 275 273 268 267 270 265 260 275 288 271 269 273 273 267 266 275 275 276 309 311 313 338 342 327 328 327 331 337 330 337 322 262 206
270 306 81 37 357 342 308 278 265 263 268 298 329 322 346 6 305 304 310 275 265 279 287 287 287 292 292 289 292 294 292 289 286 286 284 284 292 313 44 47 26 343 318 290 292 34 26 303 286 280 272 270 274 277 279 281 282 278 269 268 269 264 255 245 250 265 272 273 268 259 263 271 278 291 299 332 7 350 334 332 335 359 13 6 9 354 322 292
293 341 94 78 6 340 297 285 292 283 285 341 339 310 315 315 290 298 302 286 283 295 299 298 297 296 292 292 297 294 296 300 292 293 291 286 300 64 83 45 30 348 307 294 305 31 18 280 268 276 276 273 273 271 267 264 267 271 269 269 274 273 273 277 282 285 279 270 268 266 263 266 276 297 316 359 4 336 329 325 324 351 14 1 11 12 352 342
320 316 170 125 28 337 300 304 321 318 326 330 318 309 306 294 282 284 291 300 317 315 301 297 299 295 290 293 294 289 292 293 285 288 287 281 298 88 91 21 28 310 325 13 6 10 335 273 275 284 282 278 272 266 261 258 268 294 298 298 304 306 306 309 307 301 284 270 268 267 266 272 290 312 320 324 320 313 314 314 316 326 329 328 352 14 358 339
312 293 285 19 2 332 302 323 328 315 321 321 316 313 306 294 280 260 282 301 302 292 284 279 288 292 290 288 285 283 285 284 281 283 284 285 287 265 239 149 233 290 74 68 31 350 306 286 290 281 272 275 272 267 292 328 340 322 304 302 303 301 297 296 294 285 271 272 276 272 271 282 292 297 301 305 307 306 305 308 314 317 317 319 327 336 307 294
322 311 334 347 339 316 273 292 320 307 322 328 322 312 303 298 298 240 191 288 292 284 285 286 288 287 284 285 286 283 279 277 280 280 274 272 273 271 232 163 226 170 111 93 33 338 294 282 274 268 265 269 273 284 307 320 312 296 293 292 288 286 285 283 277 269 271 278 276 268 274 287 290 291 292 292 295 298 304 312 313 312 312 314 313 301 289 278
333 333 349 347 322 312 312 321 335 334 324 322 313 301 296 297 304 293 148 227 294 299 292 285 282 278 275 277 282 286 285 280 282 287 283 276 275 279 276 272 275 181 139 152 281 261 267 268 263 264 265 268 273 282 292 296 290 287 287 285 282 281 279 278 276 278 285 285 274 273 281 284 285 287 287 288 292 296 301 306 305 301 297 296 295 292 288 279
355 338 2 10 312 306 320 328 338 329 309 303 290 286 288 290 293 287 244 254 271 283 294 282 277 277 278 276 268 263 272 279 282 285 285 283 282 283 281 282 289 289 210 215 209 204 251 261 260 263 264 266 271 276 281 282 280 278 276 275 275 274 274 276 278 280 281 275 272 279 280 275 276 279 280 284 293 298 300 299 295 291 287 283 280 279 279 276
1 336 3 24 319 293 294 305 317 310 298 293 287 288 293 289 286 289 293 288 279 282 293 289 282 279 278 280 279 266 263 279 291 287 287 288 284 287 290 284 292 305 291 254 241 239 249 254 255 260 267 269 271 276 281 283 282 281 277 272 270 273 279 280 277 274 273 269 269 276 279 276 272 272 278 288 295 295 293 290 285 283 281 280 279 277 276 275
355 338 345 343 311 295 289 283 285 290 290 283 267 263 266 268 278 296 301 302 302 294 288 285 283 283 283 282 280 277 283 322 348 318 310 306 288 280 290 286 283 286 277 273 273 252 226 245 259 265 273 273 273 278 278 276 277 275 270 267 270 278 281 277 273 270 268 267 268 272 276 275 272 275 283 290 292 291 289 285 283 282 283 284 282 279 276 273
339 330 329 310 301 310 307 291 277 277 286 286 274 271 281 296 310 314 307 310 310 298 291 295 297 304 306 299 288 282 295 350 0 321 310 304 287 275 277 275 275 274 271 280 287 265 245 257 266 269 273 272 273 277 275 275 277 270 265 265 269 270 267 264 265 264 262 264 269 271 268 268 278 287 289 288 287 288 289 292 297 303 308 308 304 299 295 290
345 336 336 309 293 299 297 291 286 277 287 334 324 306 312 322 319 311 304 302 292 284 287 302 305 304 297 292 288 287 298 325 328 310 304 294 281 275 272 272 275 278 278 279 278 272 267 266 264 264 269 272 275 278 283 291 284 270 268 270 259 256 258 258 256 255 254 255 259 262 263 270 283 287 286 287 290 291 296 308 320 320 316 315 314 313 309 303
Height
795 794 794 793 792 792 791 790 790 789 789 789 788 788 788 787 787 787 786 786 786 785 785 785 784 784 783 782 781 781 780 778 777 775 773 770 769 769 769 769 770 771 772 772 773 772 770 769 768 767 767 766 765 763 759 755 752 757 765 774 774 767 757 745 737 733 732 733 737 735 733 739 745 742 737 739 745 749 751 752 754 754 757 759 762 766 769 773
795 794 793 792 792 791 791 790 790 789 789 788 788 788 787 787 787 786 786 785 785 785 785 784 784 784 783 783 782 781 780 778 777 773 769 767 767 768 768 769 769 770 771 772 771 769 768 766 764 765 766 765 762 760 760 754 753 760 765 771 770 759 746 734 729 729 730 734 737 735 735 738 741 742 742 749 753 751 757 759 758 761 763 764 765 769 771 773
794 793 793 792 791 791 790 789 789 788 788 788 787 787 787 786 786 786 786 785 785 785 785 784 784 783 783 782 782 782 781 779 775 768 765 765 766 766 767 768 768 769 770 770 769 767 766 763 761 762 764 765 760 758 760 754 754 759 762 769 762 749 741 729 726 733 733 733 735 737 737 738 739 740 743 752 752 753 759 759 761 765 766 766 767 769 772 774
794 793 792 791 791 790 789 789 788 788 787 787 786 786 786 785 785 785 785 785 785 784 784 784 784 783 783 782 783 782 781 779 770 762 762 764 765 766 766 767 767 769 769 769 769 766 763 760 759 759 763 765 758 754 757 754 754 756 759 764 751 740 742 732 728 734 735 735 737 740 740 741 739 738 744 750 753 756 755 751 755 760 762 765 767 769 772 774
793 792 792 791 790 789 789 788 788 787 787 786 786 785 785 785 785 784 784 784 784 784 784 784 783 783 782 782 783 782 783 780 767 760 763 764 765 765 766 767 767 768 769 770 768 765 763 760 757 759 762 763 758 755 756 749 749 755 755 754 745 739 743 736 732 735 736 738 740 743 745 742 739 740 745 748 753 756 748 741 744 749 755 763 767 770 772 774
793 792 791 790 789 789 788 788 787 787 786 785 785 785 784 784 784 784 784 783 783 783 783 783 783 782 782 782 782 783 784 776 762 761 764 763 765 765 766 767 767 768 769 769 766 763 762 759 759 762 763 762 759 755 753 745 745 756 753 746 743 740 744 742 739 741 742 744 744 744 743 739 743 747 745 746 750 750 744 739 740 745 753 762 766 770 772 774
792 791 791 790 789 789 787 787 786 786 786 785 785 784 784 783 783 783 783 783 783 783 783 783 782 782 781 781 781 781 781 770 759 761 763 763 765 764 766 766 766 768 768 768 764 761 760 760 761 760 761 762 758 752 749 745 744 753 753 745 742 740 743 745 745 747 747 747 743 741 742 742 749 751 747 747 746 746 745 744 745 749 755 763 767 770 772 774
792 791 790 789 788 788 787 786 786 785 785 784 784 783 783 783 782 782 782 782 782 782 783 782 782 782 782 781 779 777 774 765 759 761 762 763 764 764 765 765 766 767 766 765 760 757 757 760 759 756 760 758 751 748 744 746 747 750 752 746 741 741 742 744 748 750 748 746 742 743 749 748 748 749 748 748 744 745 747 748 749 753 759 765 768 770 772 774
791 790 789 789 788 787 786 785 785 785 784 783 783 783 782 782 782 782 782 782 782 782 782 782 782 782 783 781 779 775 765 758 759 761 762 763 764 764 765 764 765 765 764 762 757 755 755 757 755 752 756 751 746 744 740 749 753 748 749 745 741 745 744 745 749 750 749 747 746 751 755 751 745 747 753 748 742 744 748 750 752 756 762 766 768 770 772 774
791 789 789 788 787 786 785 785 784 783 783 783 782 782 782 781 781 781 781 781 781 782 781 782 782 782 783 780 779 776 761 757 761 762 762 763 764 764 764 763 763 762 761 757 755 754 752 752 748 744 748 748 746 744 741 749 749 743 745 743 743 747 744 746 751 748 749 749 748 754 758 751 744 751 761 751 741 744 749 752 752 756 763 766 768 770 771 774
790 789 788 787 786 786 785 784 784 783 783 782 782 781 781 781 781 781 781 781 781 781 781 781 782 782 782 779 778 772 759 758 761 761 763 763 763 763 762 761 760 760 758 754 753 752 750 749 745 745 749 748 747 746 742 742 743 742 745 745 746 748 746 748 751 748 749 751 749 752 756 751 746 752 759 749 741 745 751 754 753 757 761 764 768 770 771 773
789 788 787 787 786 785 784 784 783 783 782 781 781 780 780 780 780 780 780 781 780 781 781 781 782 782 781 778 774 766 758 759 760 760 762 761 762 762 760 760 759 759 757 753 751 749 750 749 748 751 751 749 750 750 744 738 742 745 746 753 752 749 752 751 750 748 750 752 746 751 762 759 753 752 751 744 741 746 752 754 754 756 760 763 767 769 771 773
789 788 787 787 786 785 784 784 783 782 781 781 781 780 780 780 780 780 780 780 780 780 781 781 781 781 783 776 764 760 759 759 759 760 761 761 761 760 760 760 759 759 757 754 752 749 751 751 751 752 747 748 752 749 743 738 745 750 748 755 756 755 756 749 746 748 750 751 744 754 774 768 753 747 744 741 742 749 754 754 754 756 758 762 766 769 770 772
789 788 787 786 786 785 784 783 783 782 781 780 780 779 779 779 779 779 779 779 779 780 780 780 781 781 782 772 758 758 759 758 759 759 759 760 759 759 759 759 759 758 757 755 754 752 753 751 751 751 747 747 748 745 747 745 748 753 753 755 757 762 757 741 742 748 750 750 744 757 777 768 750 741 736 737 742 750 755 754 754 755 758 761 765 768 769 771
789 788 787 787 786 785 784 783 782 781 780 779 779 779 778 778 779 778 779 779 779 780 779 779 780 779 777 766 756 757 758 757 758 757 758 758 757 757 756 757 757 756 756 756 755 753 753 752 752 754 750 744 746 751 755 753 751 753 761 763 757 761 754 735 736 744 750 750 745 758 774 765 749 735 727 734 743 749 753 754 753 755 757 760 763 766 768 769
789 789 788 787 786 785 784 782 781 780 779 778 778 778 778 778 778 778 778 778 778 779 779 778 776 776 774 763 755 757 757 756 754 755 756 756 756 755 754 755 755 755 756 755 754 753 752 752 752 752 751 748 752 758 758 759 757 753 762 767 757 756 753 740 738 740 743 748 747 756 766 760 747 735 731 737 744 748 752 752 753 755 756 759 762 764 766 768
790 789 788 787 786 785 784 782 781 780 779 778 778 777 777 777 777 778 778 778 779 777 778 776 771 774 770 758 756 756 753 753 753 754 755 755 755 753 752 754 754 754 753 753 753 752 752 753 754 754 754 755 754 757 766 772 767 756 756 761 755 750 750 745 743 739 738 746 749 752 760 758 748 742 742 743 744 749 752 752 752 754 756 758 760 762 764 766
790 789 788 787 786 785 784 783 781 780 780 779 778 778 777 777 777 777 777 778 778 778 779 774 772 777 769 756 755 753 749 752 754 753 754 755 755 754 753 752 751 752 754 755 755 753 754 754 755 758 759 760 758 760 773 773 763 759 757 758 756 751 749 745 742 738 738 747 751 752 757 756 748 744 744 744 745 749 751 751 751 752 755 758 759 761 762 763
790 789 788 787 786 786 784 783 782 781 780 780 779 779 778 778 778 777 777 777 777 777 775 769 769 772 763 753 750 749 749 752 753 754 753 753 755 754 752 751 750 752 757 760 758 754 755 757 760 765 764 761 759 758 762 760 756 759 758 756 756 752 748 741 738 737 738 748 754 755 757 753 750 746 742 741 744 749 751 750 751 751 754 757 759 760 759 761
790 789 788 787 787 786 785 784 782 781 781 780 780 780 778 776 776 775 774 774 770 766 761 758 759 758 752 748 748 750 752 753 753 752 752 752 753 754 752 752 753 755 759 760 759 752 753 763 767 766 762 758 755 751 751 754 756 759 758 757 753 751 746 738 739 740 739 750 754 752 755 753 749 746 741 739 742 748 751 751 751 751 752 755 757 758 758 759
789 789 788 787 787 786 785 784 783 781 780 780 780 779 774 771 774 774 771 768 761 756 754 751 751 751 748 746 747 749 751 753 752 749 751 751 751 754 754 754 759 762 760 756 755 753 757 769 767 757 753 753 754 752 752 756 758 759 762 762 757 754 750 742 745 746 743 755 757 751 755 755 750 747 741 738 741 747 749 751 752 751 751 752 753 755 756 756
789 788 787 787 787 786 785 784 783 782 780 780 780 777 770 769 773 772 770 769 758 751 752 750 750 750 747 747 747 748 751 753 752 748 749 751 752 755 754 754 761 761 756 754 757 762 767 769 760 750 749 751 754 755 756 758 760 764 763 764 764 757 752 747 745 744 745 757 760 755 760 758 750 746 742 738 738 740 743 746 749 749 751 751 752 753 754 755
789 788 787 787 786 786 785 784 784 782 780 779 777 773 770 771 772 769 770 771 760 750 750 750 751 751 748 749 748 749 752 750 749 748 748 751 752 753 752 755 757 756 754 755 759 768 770 762 752 748 751 754 756 757 760 762 764 767 766 768 767 757 756 757 752 749 748 754 759 759 762 760 752 746 741 737 735 735 737 741 745 747 749 749 749 750 752 754
788 787 787 786 786 786 784 784 783 781 779 776 774 772 772 772 771 771 770 769 762 752 747 746 746 746 746 747 747 749 752 747 744 744 745 750 752 750 751 752 753 755 753 749 754 763 763 754 748 750 754 756 759 760 762 768 770 767 766 768 765 757 756 758 757 755 754 756 758 763 771 765 754 751 744 736 735 736 736 738 743 745 746 747 748 748 749 751
787 787 786 785 786 784 784 784 780 778 776 772 772 772 773 773 771 773 772 773 770 755 747 748 746 745 743 746 749 747 748 747 743 743 743 747 749 749 750 748 751 757 752 746 751 756 755 750 748 754 756 756 762 763 762 769 774 771 763 760 761 758 756 757 758 759 767 770 757 761 783 775 751 747 745 737 737 739 737 737 740 742 743 745 747 747 747 748
787 786 785 785 785 783 784 781 776 775 773 770 772 772 774 773 772 773 773 782 781 760 752 754 750 749 746 747 747 745 751 748 738 740 743 744 745 747 753 749 748 754 748 745 749 747 748 750 751 755 757 758 763 764 760 763 773 774 762 752 751 752 755 760 761 764 776 775 753 753 780 779 756 743 737 734 737 737 737 738 737 737 739 740 742 744 745 747
786 785 785 785 784 784 783 779 776 774 771 772 773 774 774 773 773 773 778 795 788 758 751 752 749 751 748 746 743 748 760 752 739 742 743 745 745 746 756 753 748 750 743 748 758 748 743 749 753 755 758 762 765 765 759 757 767 770 758 752 751 749 754 760 764 768 769 765 756 753 764 774 768 748 732 730 735 735 734 736 736 735 736 735 736 739 742 744
786 785 785 784 784 784 782 780 778 774 773 775 774 775 775 774 774 772 785 805 785 750 747 748 746 748 745 744 744 747 753 749 750 749 739 744 748 747 757 754 749 748 740 751 765 753 745 751 755 757 761 764 762 758 752 753 763 761 751 752 753 751 753 756 763 767 762 766 772 760 755 771 772 749 733 730 731 732 733 735 735 735 735 734 734 736 737 739
785 785 784 784 784 783 782 782 780 776 776 776 775 776 774 774 774 776 793 801 772 746 747 747 747 748 745 746 747 747 746 746 752 749 739 745 747 746 754 751 747 748 742 746 756 751 746 747 749 754 761 762 756 749 745 748 755 753 748 752 754 753 755 758 764 766 763 772 778 761 752 766 767 745 735 734 729 729 732 731 731 731 733 733 732 734 735 736
785 785 784 784 783 783 782 781 779 778 777 776 777 776 774 775 776 790 807 793 763 750 748 746 748 748 746 749 750 748 747 746 745 745 745 747 746 747 749 746 746 750 747 746 751 750 743 740 745 751 754 754 749 744 742 743 746 749 753 758 760 758 757 761 762 763 773 779 771 757 748 757 765 748 734 731 725 724 728 727 726 728 731 732 731 732 733 734
785 785 785 784 783 783 781 779 779 779 778 778 777 774 776 777 779 797 800 774 758 757 749 748 749 745 746 750 751 749 747 745 741 745 751 749 749 751 751 751 753 757 759 756 753 750 746 746 748 748 747 746 747 746 744 742 743 750 757 762 767 766 761 767 767 768 786 787 766 752 744 752 767 754 733 726 720 720 725 724 724 726 727 729 729 729 730 732
786 785 785 784 784 783 782 780 779 779 778 777 777 774 777 784 786 788 777 759 762 762 752 753 750 745 747 746 747 747 746 745 741 743 749 750 752 752 754 756 756 765 770 762 757 754 749 747 744 743 744 744 750 753 749 746 747 754 760 766 778 779 774 779 779 777 784 779 760 748 746 752 756 742 729 726 722 720 722 722 723 722 723 725 727 727 728 730
786 785 785 784 784 783 782 781 780 780 778 777 777 773 778 793 791 774 760 757 762 757 750 752 749 747 750 750 748 743 743 747 744 744 745 744 749 749 748 747 746 758 764 758 760 762 756 747 739 742 743 740 748 756 758 753 752 758 762 768 779 784 787 789 782 777 776 769 756 748 753 761 753 736 727 726 722 717 716 720 723 721 720 723 724 725 727 728
786 785 785 784 783 783 782 781 780 779 778 776 777 776 785 798 785 764 758 756 753 750 748 748 748 749 750 751 747 738 742 748 742 744 747 746 753 753 750 746 741 746 751 755 762 764 767 763 748 744 743 739 743 748 751 748 748 751 749 756 768 772 780 786 780 778 775 768 761 755 759 766 757 739 725 721 719 715 713 714 719 721 719 721 723 725 726 727
786 785 785 783 783 783 781 782 780 779 779 776 776 781 789 791 775 763 764 758 751 752 750 746 749 754 751 747 741 734 743 750 740 741 748 750 754 754 751 749 744 744 753 764 764 758 766 764 743 737 736 735 741 742 740 745 750 746 738 749 762 759 764 773 772 770 771 773 769 762 759 752 742 732 721 719 719 716 715 713 716 722 721 722 726 726 727 727
786 785 785 782 782 782 781 782 780 779 779 777 781 786 782 775 765 761 762 760 757 758 758 756 754 756 754 745 740 737 742 749 746 747 749 747 746 745 743 742 741 745 753 762 763 759 767 760 738 734 733 728 737 739 735 743 750 747 745 751 748 741 751 768 774 768 771 783 774 761 759 747 738 734 722 720 723 719 718 716 715 720 721 724 728 728 729 728
787 785 784 781 781 782 781 781 780 779 777 778 787 787 773 763 759 758 759 761 760 757 762 768 760 755 756 751 747 743 744 750 752 753 753 748 744 739 736 735 737 742 746 752 758 757 764 764 744 738 740 731 731 737 734 733 738 745 751 745 736 737 744 757 774 776 780 788 774 759 762 757 753 748 727 719 724 721 719 717 716 719 721 723 726 728 730 729
787 784 782 781 781 781 780 780 780 778 776 779 785 780 768 761 758 759 761 763 763 760 765 771 763 755 759 761 758 748 746 754 754 754 754 751 747 741 738 741 741 743 744 749 757 755 759 769 754 739 742 735 728 735 739 732 730 737 740 734 740 757 759 757 771 780 785 789 777 764 761 756 752 745 730 723 723 720 720 719 718 720 721 722 723 725 727 728
787 784 781 781 781 781 780 780 779 777 778 782 783 774 765 760 757 759 763 765 765 765 768 768 762 759 761 763 762 754 752 756 754 755 757 753 752 748 743 746 746 746 747 750 758 756 757 771 766 744 739 739 736 740 746 742 735 734 736 735 740 753 758 756 760 767 775 782 778 771 765 757 744 731 725 724 719 719 722 721 721 721 720 721 722 723 725 726
785 783 781 780 781 780 779 779 778 778 780 779 775 768 763 761 759 759 763 767 769 769 770 768 766 767 766 763 762 759 757 758 756 757 758 752 753 752 746 747 749 749 749 750 755 757 757 768 771 754 742 747 749 745 744 745 743 743 747 749 748 749 752 758 758 754 760 772 776 774 770 755 734 721 721 721 719 720 721 720 722 721 720 721 721 722 723 724
784 782 781 780 780 779 778 779 778 776 776 773 768 766 765 766 766 762 761 765 769 767 766 768 769 771 771 768 766 762 760 760 757 757 758 753 751 754 749 749 752 752 752 754 756 761 765 768 772 766 757 756 751 739 734 735 737 743 749 750 751 753 761 777 780 764 758 767 771 774 777 758 730 720 722 721 722 723 721 722 724 723 724 725 724 726 725 723
784 782 780 779 779 778 778 779 773 769 772 771 769 768 767 769 769 766 763 764 766 765 763 766 769 770 771 770 767 764 762 763 761 759 759 754 749 753 753 751 753 755 758 760 759 763 770 771 774 772 763 756 747 736 735 735 733 737 743 742 744 749 756 772 782 770 762 765 761 764 774 759 730 722 723 723 727 726 724 725 726 726 729 728 728 731 731 727
782 780 778 778 778 777 779 780 772 767 768 768 768 768 766 767 769 768 766 765 765 766 766 769 770 770 771 768 767 768 766 768 767 763 762 758 751 753 755 753 756 758 761 764 764 767 772 773 776 773 761 751 743 735 732 732 733 739 741 737 740 744 746 753 759 760 764 767 763 767 773 755 729 721 722 725 728 727 726 726 726 728 729 729 731 732 733 732
783 779 775 776 777 775 779 782 778 775 773 769 769 771 768 767 768 770 769 768 768 770 773 774 772 771 770 768 769 770 769 773 772 765 763 760 755 754 754 755 759 760 763 770 772 774 777 775 776 779 775 766 757 749 741 737 740 747 747 743 743 743 745 751 753 757 765 766 763 772 775 755 733 725 726 728 729 728 728 727 727 728 729 730 731 731 732 734
786 781 776 775 776 776 778 779 779 781 779 776 777 777 773 769 766 768 772 772 771 771 775 775 772 771 770 769 771 770 769 773 774 768 764 762 757 753 752 755 759 760 765 772 772 775 780 779 779 785 788 783 775 765 756 752 754 755 752 750 749 747 749 754 758 765 770 764 761 769 770 754 739 733 733 733 733 733 731 729 729 730 731 731 731 732 732 733
790 788 785 782 779 777 775 774 776 781 781 783 786 782 779 776 769 766 772 775 773 771 774 774 772 773 773 773 776 776 771 770 771 769 766 764 760 753 751 754 757 760 767 771 770 774 782 782 780 782 782 778 773 763 755 756 762 761 757 754 752 750 750 753 760 766 765 762 762 762 760 756 748 740 737 736 736 736 735 734 734 734 733 733 732 731 730 730
792 794 795 795 790 782 778 775 777 781 782 785 789 785 781 781 776 771 773 776 774 773 776 777 775 777 779 778 781 782 777 772 771 771 768 764 760 754 751 753 755 758 765 767 768 776 785 785 781 780 777 771 767 763 759 760 763 762 759 756 753 752 752 755 762 762 759 764 765 756 753 759 755 744 740 738 738 739 739 739 738 736 735 734 733 732 730 729
796 797 796 800 800 793 789 785 783 786 786 784 785 783 782 784 782 779 776 772 771 774 779 782 779 778 778 777 780 783 781 778 777 777 773 768 765 762 758 757 756 757 761 765 766 772 781 784 780 778 775 768 765 763 761 761 761 758 756 755 753 752 754 757 760 757 757 765 765 754 752 758 753 744 739 737 738 741 740 739 738 735 733 732 732 731 729 727
802 801 796 799 802 797 793 790 789 791 789 785 785 785 785 786 785 781 775 773 775 775 779 786 784 778 776 774 776 780 780 782 785 783 778 775 773 772 771 768 764 760 762 764 762 763 773 778 775 774 772 766 764 763 761 762 762 759 755 752 750 752 754 755 756 754 755 758 756 751 752 752 746 740 737 735 737 738 737 736 735 733 731 729 728 728 727 725
809 809 805 804 803 797 791 789 791 792 788 785 787 786 784 784 782 780 776 777 782 781 779 785 784 777 775 774 775 778 776 781 790 789 785 784 780 778 779 776 770 766 765 765 761 761 769 773 769 770 772 767 763 763 762 762 764 763 756 750 751 755 756 756 755 754 755 755 752 752 755 750 739 735 736 736 735 735 735 734 731 729 727 726 725 724 722 722
815 813 812 811 806 799 794 789 788 789 788 785 784 782 781 781 778 780 781 780 784 785 782 785 784 781 781 779 777 778 775 780 789 789 786 787 783 779 779 775 773 771 769 769 767 763 767 769 766 770 775 769 764 767 763 760 763 761 753 751 755 759 757 756 754 753 754 756 755 756 757 749 738 735 738 737 734 733 733 731 729 728 728 728 726 724 721 719
819 815 813 813 809 802 798 792 787 788 787 785 783 780 782 784 782 784 788 785 783 783 782 783 786 787 789 787 781 778 776 779 786 787 785 785 780 776 775 772 771 773 772 773 772 767 767 769 769 774 776 768 764 767 763 764 769 762 750 749 753 753 752 751 750 748 748 750 754 754 750 744 739 738 738 737 735 733 732 732 734 733 730 729 728 727 724 721